QFA438 RJTT-YSSY

Flight info

Callsign QFA438
Flight time N/A
Altitude 37000
Route VAMOS XAC B586 SABRI/N0469F360 B586 CADDY/N0468F370 B586 UKATA 25N141E 20N142E DCT RIDLL/N0469F390 A216 CS Y177 AKROM Y153 ROKUU H652 BOREE
Aircraft A333/H-SDE3GHIJ2J3J5M1RVWXY/LB2D1

Departure

Time N/A
Airport Tokyo Haneda International Airport (RJTT)

Arrival

Time 2026-05-06 19:47
Airport Sydney Kingsford Smith International Airport (YSSY)
Time Latitude Longitude Altitude Speed Heading
2026-05-06 19:27 -32.80345 150.96638 30409 ft 510 kts 178°
2026-05-06 19:27 -32.83837 150.97265 29209 ft 503 kts 178°
2026-05-06 19:27 -32.87259 150.97881 28030 ft 492 kts 178°
2026-05-06 19:28 -32.90616 150.98482 26903 ft 483 kts 178°
2026-05-06 19:28 -32.93917 150.99072 25818 ft 476 kts 178°
2026-05-06 19:28 -32.97156 150.99651 24764 ft 467 kts 178°
2026-05-06 19:28 -33.00342 151.00219 23744 ft 459 kts 177°
2026-05-06 19:29 -33.03467 151.00777 22623 ft 449 kts 177°
2026-05-06 19:29 -33.06526 151.01325 21526 ft 440 kts 177°
2026-05-06 19:29 -33.09524 151.01861 20449 ft 431 kts 177°
2026-05-06 19:29 -33.12461 151.02386 19426 ft 422 kts 177°
2026-05-06 19:30 -33.15332 151.02900 18426 ft 413 kts 177°
2026-05-06 19:30 -33.18156 151.03406 17246 ft 407 kts 177°
2026-05-06 19:30 -33.20917 151.03901 16440 ft 393 kts 176°
2026-05-06 19:30 -33.23533 151.04377 15829 ft 376 kts 176°
2026-05-06 19:31 -33.26065 151.04857 15271 ft 362 kts 176°
2026-05-06 19:31 -33.28511 151.05326 14730 ft 349 kts 176°
2026-05-06 19:31 -33.33251 151.06229 13735 ft 347 kts 176°
2026-05-06 19:32 -33.35640 151.06683 13180 ft 348 kts 176°
2026-05-06 19:32 -33.38029 151.07139 12659 ft 349 kts 176°
2026-05-06 19:32 -33.40427 151.07598 12152 ft 349 kts 175°
2026-05-06 19:32 -33.42825 151.08057 11644 ft 349 kts 175°
2026-05-06 19:33 -33.45217 151.08517 11194 ft 347 kts 175°
2026-05-06 19:33 -33.47598 151.08974 11028 ft 346 kts 175°
2026-05-06 19:33 -33.49952 151.09429 11008 ft 335 kts 175°
2026-05-06 19:33 -33.52191 151.09867 11007 ft 318 kts 175°
2026-05-06 19:34 -33.54327 151.10282 11003 ft 306 kts 175°
2026-05-06 19:34 -33.56418 151.10683 10982 ft 304 kts 175°
2026-05-06 19:34 -33.58503 151.11082 10968 ft 302 kts 175°
2026-05-06 19:34 -33.60574 151.11479 10617 ft 303 kts 175°
2026-05-06 19:35 -33.62660 151.11884 10178 ft 304 kts 175°
2026-05-06 19:35 -33.64719 151.12288 9827 ft 303 kts 175°
2026-05-06 19:35 -33.66818 151.12700 9399 ft 302 kts 174°
2026-05-06 19:35 -33.68856 151.13103 9030 ft 299 kts 174°
2026-05-06 19:36 -33.70921 151.13518 8801 ft 293 kts 172°
2026-05-06 19:36 -33.72791 151.14404 8921 ft 298 kts 148°
2026-05-06 19:36 -33.74246 151.16195 9011 ft 304 kts 123°
2026-05-06 19:36 -33.75053 151.18540 8992 ft 305 kts 106°
2026-05-06 19:37 -33.75575 151.21030 8593 ft 309 kts 103°
2026-05-06 19:37 -33.76051 151.23532 8281 ft 306 kts 103°
2026-05-06 19:37 -33.76515 151.26011 7967 ft 302 kts 103°
2026-05-06 19:37 -33.76966 151.28460 7612 ft 299 kts 103°
2026-05-06 19:38 -33.77412 151.30898 7267 ft 297 kts 103°
2026-05-06 19:38 -33.77851 151.33314 6999 ft 295 kts 103°
2026-05-06 19:38 -33.78279 151.35690 6781 ft 288 kts 103°
2026-05-06 19:38 -33.78692 151.38019 6599 ft 281 kts 103°
2026-05-06 19:39 -33.79089 151.40294 6403 ft 275 kts 103°
2026-05-06 19:39 -33.79471 151.42519 6194 ft 269 kts 103°
2026-05-06 19:39 -33.79844 151.44699 5985 ft 264 kts 103°
2026-05-06 19:39 -33.80318 151.46795 5786 ft 255 kts 115°
2026-05-06 19:40 -33.81238 151.48536 5604 ft 240 kts 137°
2026-05-06 19:40 -33.82574 151.49596 5398 ft 223 kts 166°
2026-05-06 19:40 -33.84051 151.49776 5195 ft 209 kts 193°
2026-05-06 19:40 -33.85350 151.49123 4994 ft 200 kts 222°
2026-05-06 19:41 -33.86163 151.47812 4823 ft 196 kts 244°
2026-05-06 19:41 -33.86694 151.46305 4613 ft 196 kts 249°
2026-05-06 19:41 -33.87176 151.44784 4388 ft 191 kts 249°
2026-05-06 19:41 -33.87635 151.43321 4200 ft 183 kts 249°
2026-05-06 19:42 -33.88079 151.41916 3986 ft 177 kts 249°
2026-05-06 19:42 -33.88515 151.40547 3785 ft 174 kts 248°
2026-05-06 19:42 -33.88952 151.39200 3586 ft 172 kts 248°
2026-05-06 19:42 -33.89319 151.37843 3452 ft 170 kts 254°
2026-05-06 19:43 -33.89619 151.36474 3357 ft 168 kts 253°
2026-05-06 19:43 -33.89936 151.35121 3063 ft 167 kts 252°
2026-05-06 19:43 -33.90249 151.33801 2826 ft 158 kts 252°
2026-05-06 19:43 -33.90541 151.32576 2704 ft 146 kts 253°
2026-05-06 19:44 -33.90811 151.31441 2420 ft 138 kts 255°
2026-05-06 19:44 -33.91072 151.30335 2071 ft 135 kts 255°
2026-05-06 19:44 -33.91325 151.29265 1829 ft 132 kts 255°
2026-05-06 19:44 -33.91575 151.28205 1656 ft 132 kts 255°
2026-05-06 19:45 -33.91822 151.27152 1476 ft 131 kts 255°
2026-05-06 19:45 -33.92073 151.26098 1346 ft 131 kts 256°
2026-05-06 19:45 -33.92324 151.25042 1148 ft 131 kts 257°
2026-05-06 19:45 -33.92566 151.23989 931 ft 130 kts 254°
2026-05-06 19:46 -33.92824 151.22946 787 ft 131 kts 255°
2026-05-06 19:46 -33.93071 151.21892 646 ft 130 kts 255°
2026-05-06 19:46 -33.93310 151.20838 408 ft 130 kts 255°
2026-05-06 19:46 -33.93556 151.19814 218 ft 125 kts 253°
2026-05-06 19:47 -33.93793 151.18819 55 ft 122 kts 253°
2026-05-06 19:47 -33.94001 151.17946 32 ft 85 kts 254°
2026-05-06 19:47 -33.94107 151.17494 31 ft 34 kts 255°
2026-05-06 19:47 -33.94146 151.17310 32 ft 11 kts 266°
2026-05-06 19:48 -33.94094 151.17256 33 ft 11 kts 347°
2026-05-06 19:48 -33.94013 151.17236 33 ft 13 kts 348°
2026-05-06 19:48 -33.93922 151.17212 33 ft 14 kts 348°
2026-05-06 19:48 -33.93820 151.17186 32 ft 16 kts 348°
2026-05-06 19:49 -33.93727 151.17160 33 ft 8 kts 339°
2026-05-06 19:49 -33.93712 151.17120 33 ft 8 kts 274°
2026-05-06 19:49 -33.93709 151.17051 33 ft 9 kts 268°
2026-05-06 19:49 -33.93722 151.16980 34 ft 8 kts 255°
2026-05-06 19:50 -33.93729 151.16947 34 ft 2 kts 255°
2026-05-06 19:50 -33.93730 151.16944 34 ft 0 kts 255°